TimeCET,TemperatureF,Dew PointF,Humidity,Sea Level PressureIn,VisibilityMPH,Wind Direction,Wind SpeedMPH,Gust SpeedMPH,PrecipitationIn,Events,Conditions,WindDirDegrees,DateUTC
12:18 AM,35.6,33.8,93,30.27,-9999.0,ESE,2.3,-,N/A,,Mist,120,2012-11-14 23:18:00
12:25 AM,35.6,35.6,100,30.27,-9999.0,ESE,2.3,-,N/A,,Mist,110,2012-11-14 23:25:00
12:29 AM,35.6,35.6,100,30.27,3.1,ESE,3.5,-,N/A,,Mist,120,2012-11-14 23:29:00
12:35 AM,35.6,35.6,100,30.27,-9999.0,ESE,3.5,-,N/A,,Mist,120,2012-11-14 23:35:00
12:55 AM,35.6,35.6,100,30.27,2.8,SE,3.5,-,N/A,,Mist,130,2012-11-14 23:55:00
1:00 AM,36,35,93,30.28,3,SE,4.5,,,,Mist,130,2012-11-15 00:00:00
1:03 AM,35.6,35.6,100,30.27,3.1,SE,5.8,-,N/A,,Mist,130,2012-11-15 00:03:00
1:07 AM,35.6,35.6,100,30.27,-9999.0,SE,4.6,-,N/A,,Mist,130,2012-11-15 00:07:00
1:25 AM,35.6,35.6,100,30.27,-9999.0,SE,3.5,-,N/A,,Mist,130,2012-11-15 00:25:00
1:55 AM,35.6,33.8,93,30.27,-9999.0,SE,5.8,-,N/A,,Mist,140,2012-11-15 00:55:00
2:00 AM,35.6,33.8,93,30.27,-9999.0,SE,5.8,-,N/A,,Mist,140,2012-11-15 01:00:00
2:05 AM,35.6,33.8,93,30.27,-9999.0,SE,5.8,-,N/A,,Mist,140,2012-11-15 01:05:00
2:07 AM,33.8,33.8,100,30.27,-9999.0,SE,5.8,-,N/A,,Partly Cloudy,140,2012-11-15 01:07:00
2:13 AM,35.6,33.8,93,30.27,-9999.0,SE,6.9,-,N/A,,Mostly Cloudy,140,2012-11-15 01:13:00
2:25 AM,35.6,35.6,100,30.24,-9999.0,SSE,5.8,-,N/A,,Overcast,150,2012-11-15 01:25:00
2:29 AM,35.6,35.6,100,30.24,2.8,SSE,5.8,-,N/A,,Overcast,150,2012-11-15 01:29:00
2:41 AM,35.6,35.6,100,30.24,-9999.0,SSE,5.8,-,N/A,,Overcast,150,2012-11-15 01:41:00
2:46 AM,35.6,35.6,100,30.24,3.1,SE,4.6,-,N/A,,Overcast,140,2012-11-15 01:46:00
2:55 AM,35.6,35.6,100,30.24,3.1,SE,4.6,-,N/A,,Overcast,140,2012-11-15 01:55:00
3:07 AM,37.4,35.6,93,30.24,3.1,SE,3.5,-,N/A,,Overcast,140,2012-11-15 02:07:00
3:25 AM,37.4,35.6,93,30.24,3.1,SE,3.5,-,N/A,,Overcast,140,2012-11-15 02:25:00
3:55 AM,37.4,37.4,100,30.24,3.1,SSE,5.8,-,N/A,,Overcast,160,2012-11-15 02:55:00
4:00 AM,38,36,92,30.27,3,SSE,4.5,,,,Mist,160,2012-11-15 03:00:00
4:25 AM,37.4,37.4,100,30.24,3.1,SE,4.6,-,N/A,,Overcast,140,2012-11-15 03:25:00
4:55 AM,39.2,37.4,93,30.24,3.7,SSE,3.5,-,N/A,,Overcast,150,2012-11-15 03:55:00
4:56 AM,39.2,37.4,93,30.24,3.7,SSE,3.5,-,N/A,,Overcast,150,2012-11-15 03:56:00
5:25 AM,39.2,37.4,93,30.24,3.7,SSE,3.5,-,N/A,,Overcast,150,2012-11-15 04:25:00
5:55 AM,39.2,37.4,93,30.24,3.7,SE,1.2,-,N/A,,Overcast,130,2012-11-15 04:55:00
6:25 AM,39.2,37.4,93,30.24,3.7,ESE,3.5,-,N/A,,Overcast,110,2012-11-15 05:25:00
6:55 AM,39.2,37.4,93,30.24,3.7,SE,3.5,-,N/A,,Overcast,140,2012-11-15 05:55:00
7:00 AM,39,38,92,30.26,4,SE,4.5,,,,Mist,140,2012-11-15 06:00:00
7:04 AM,39.2,37.4,93,30.24,3.7,SE,3.5,-,N/A,,Overcast,140,2012-11-15 06:04:00
7:25 AM,39.2,37.4,93,30.24,3.7,SSE,3.5,-,N/A,,Overcast,150,2012-11-15 06:25:00
7:55 AM,39.2,37.4,93,30.24,3.7,SE,2.3,-,N/A,,Overcast,140,2012-11-15 06:55:00
8:25 AM,39.2,37.4,93,30.27,4.3,SSE,2.3,-,N/A,,Overcast,150,2012-11-15 07:25:00
8:43 AM,39.2,37.4,93,30.27,4.3,SSE,2.3,-,N/A,,Overcast,150,2012-11-15 07:43:00
8:48 AM,39.2,37.4,93,30.27,4.3,SE,2.3,-,N/A,,Overcast,130,2012-11-15 07:48:00
8:55 AM,39.2,37.4,93,30.27,4.3,SE,2.3,-,N/A,,Overcast,140,2012-11-15 07:55:00
8:58 AM,41.0,37.4,87,30.27,4.3,SE,2.3,-,N/A,,Overcast,140,2012-11-15 07:58:00
9:02 AM,41.0,37.4,87,30.27,4.3,SE,2.3,-,N/A,,Overcast,140,2012-11-15 08:02:00
9:25 AM,41.0,39.2,93,30.27,5.0,ESE,2.3,-,N/A,,Overcast,120,2012-11-15 08:25:00
9:55 AM,41.0,37.4,87,30.27,5.0,ESE,4.6,-,N/A,,Overcast,120,2012-11-15 08:55:00
10:00 AM,41,38,83,30.28,5,ESE,4.5,,,,Mist,120,2012-11-15 09:00:00
10:05 AM,41.0,37.4,87,30.27,5.0,SE,4.6,-,N/A,,Overcast,130,2012-11-15 09:05:00
10:09 AM,41.0,37.4,87,30.27,5.0,SE,5.8,-,N/A,,Overcast,130,2012-11-15 09:09:00
10:20 AM,41.0,37.4,87,30.27,5.0,ESE,5.8,-,N/A,,Overcast,120,2012-11-15 09:20:00
10:25 AM,41.0,37.4,87,30.27,5.0,ESE,5.8,-,N/A,,Overcast,120,2012-11-15 09:25:00
10:28 AM,41.0,37.4,87,30.27,5.0,ESE,5.8,-,N/A,,Overcast,120,2012-11-15 09:28:00
10:43 AM,41.0,35.6,81,30.27,4.3,ESE,5.8,-,N/A,,Overcast,120,2012-11-15 09:43:00
10:50 AM,41.0,35.6,81,30.27,5.0,SE,6.9,-,N/A,,Overcast,130,2012-11-15 09:50:00
10:55 AM,41.0,35.6,81,30.27,5.0,SE,6.9,-,N/A,,Overcast,130,2012-11-15 09:55:00
11:03 AM,42.8,37.4,81,30.24,5.6,SSE,6.9,-,N/A,,Mostly Cloudy,150,2012-11-15 10:03:00
11:25 AM,42.8,35.6,76,30.24,5.6,SSE,8.1,-,N/A,,Overcast,150,2012-11-15 10:25:00
11:55 AM,42.8,35.6,76,30.24,5.6,ESE,5.8,-,N/A,,Mostly Cloudy,120,2012-11-15 10:55:00
12:19 PM,42.8,37.4,81,30.24,4.3,SSE,6.9,-,N/A,,Overcast,150,2012-11-15 11:19:00
12:25 PM,42.8,37.4,81,30.24,5.0,SE,6.9,-,N/A,,Overcast,140,2012-11-15 11:25:00
12:55 PM,42.8,35.6,76,30.21,4.3,ESE,4.6,-,N/A,,Overcast,120,2012-11-15 11:55:00
12:59 PM,42.8,35.6,76,30.21,4.3,SE,5.8,-,N/A,,Haze,130,2012-11-15 11:59:00
1:00 PM,43,36,70,30.24,4,SE,6.7,,,,Light Haze,140,2012-11-15 12:00:00
1:25 PM,42.8,37.4,81,30.21,4.3,SSE,5.8,-,N/A,,Haze,150,2012-11-15 12:25:00
1:47 PM,42.8,37.4,81,30.21,-9999.0,ESE,4.6,-,N/A,,Haze,120,2012-11-15 12:47:00
1:51 PM,42.8,37.4,81,30.21,3.7,SE,5.8,-,N/A,,Haze,130,2012-11-15 12:51:00
1:55 PM,42.8,37.4,81,30.21,3.7,SE,5.8,-,N/A,,Haze,130,2012-11-15 12:55:00
2:08 PM,42.8,37.4,81,30.21,4.3,SE,5.8,-,N/A,,Haze,140,2012-11-15 13:08:00
2:25 PM,42.8,37.4,81,30.21,4.3,East,4.6,-,N/A,,Haze,100,2012-11-15 13:25:00
2:55 PM,42.8,37.4,81,30.21,4.3,SSE,4.6,-,N/A,,Haze,150,2012-11-15 13:55:00
3:21 PM,42.8,37.4,81,30.18,5.0,SE,4.6,-,N/A,,Haze,130,2012-11-15 14:21:00
3:25 PM,42.8,37.4,81,30.18,5.0,SE,4.6,-,N/A,,Haze,130,2012-11-15 14:25:00
3:33 PM,42.8,37.4,81,30.18,4.3,ESE,4.6,-,N/A,,Haze,120,2012-11-15 14:33:00
3:55 PM,42.8,35.6,76,30.18,5.0,ESE,5.8,-,N/A,,Haze,110,2012-11-15 14:55:00
4:00 PM,42,36,72,30.20,5,ESE,6.7,,,,Light Haze,120,2012-11-15 15:00:00
4:25 PM,42.8,35.6,76,30.18,4.3,East,5.8,-,N/A,,Haze,100,2012-11-15 15:25:00
4:55 PM,42.8,35.6,76,30.18,3.7,ESE,3.5,-,N/A,,Haze,120,2012-11-15 15:55:00
5:25 PM,41.0,35.6,81,30.18,3.7,SE,3.5,-,N/A,,Haze,140,2012-11-15 16:25:00
5:55 PM,41.0,35.6,81,30.18,3.7,South,3.5,-,N/A,,Haze,170,2012-11-15 16:55:00
6:25 PM,41.0,35.6,81,30.18,3.7,East,4.6,-,N/A,,Haze,100,2012-11-15 17:25:00
6:55 PM,41.0,35.6,81,30.18,3.1,SE,4.6,-,N/A,,Haze,140,2012-11-15 17:55:00
7:00 PM,41,36,74,30.19,3,SE,6.7,,,,Light Haze,130,2012-11-15 18:00:00
7:25 PM,41.0,35.6,81,30.18,3.1,SE,4.6,-,N/A,,Haze,140,2012-11-15 18:25:00
7:55 PM,41.0,35.6,81,30.18,3.1,SE,3.5,-,N/A,,Haze,130,2012-11-15 18:55:00
8:25 PM,41.0,35.6,81,30.18,3.7,ESE,3.5,-,N/A,,Haze,120,2012-11-15 19:25:00
8:31 PM,41.0,35.6,81,30.18,3.7,South,4.6,-,N/A,,Haze,170,2012-11-15 19:31:00
8:37 PM,41.0,35.6,81,30.18,3.7,South,3.5,-,N/A,,Haze,180,2012-11-15 19:37:00
8:55 PM,41.0,35.6,81,30.18,4.3,South,4.6,-,N/A,,Haze,170,2012-11-15 19:55:00
9:06 PM,41.0,35.6,81,30.18,4.3,South,5.8,-,N/A,,Haze,170,2012-11-15 20:06:00
9:10 PM,41.0,35.6,81,30.18,4.3,SSE,5.8,-,N/A,,Haze,160,2012-11-15 20:10:00
9:25 PM,41.0,35.6,81,30.15,4.3,SSE,5.8,-,N/A,,Haze,160,2012-11-15 20:25:00
9:55 PM,39.2,35.6,87,30.18,3.7,SSE,3.5,-,N/A,,Haze,160,2012-11-15 20:55:00
10:00 PM,40,35,77,30.19,4,SSE,4.5,,,,Light Haze,150,2012-11-15 21:00:00
10:25 PM,39.2,35.6,87,30.15,3.7,SE,3.5,-,N/A,,Haze,140,2012-11-15 21:25:00
10:55 PM,39.2,35.6,87,30.15,3.1,SE,3.5,-,N/A,,Overcast,130,2012-11-15 21:55:00
11:25 PM,39.2,35.6,87,30.15,3.1,SE,6.9,-,N/A,,Overcast,140,2012-11-15 22:25:00
11:55 PM,39.2,35.6,87,30.15,3.1,SE,4.6,-,N/A,,Overcast,130,2012-11-15 22:55:00